This is the latest recevied weather packets stored in our database for station/object KJ7IVE-13. If no packets are shown the sender has not sent any weather packets the latest 10 day(s).
| Time | Temp. | Humidity | Pressure | Rain* | Wind** | Luminosity | Snow |
|---|---|---|---|---|---|---|---|
| 1777604150 | 14.44° C | 10% | 1018.6 hPa | 0 mm | - | 0 W/m² | - |
| 1777603847 | 14.44° C | 10% | 1018.5 hPa | 0 mm | - | 0 W/m² | - |
| 1777603543 | 14.44° C | 10% | 1018.5 hPa | 0 mm | - | 0 W/m² | - |
| 1777603239 | 13.89° C | 10% | 1018.3 hPa | 0 mm | - | 0 W/m² | - |
| 1777602935 | 14.44° C | 10% | 1018.4 hPa | 0 mm | - | 0 W/m² | - |
| 1777602630 | 14.44° C | 10% | 1018.5 hPa | 0 mm | - | 0 W/m² | - |
| 1777602325 | 15° C | 10% | 1018.4 hPa | 0 mm | - | 1 W/m² | - |
| 1777602021 | 15° C | 10% | 1018.4 hPa | 0 mm | - | 3 W/m² | - |
| 1777601716 | 15.56° C | 10% | 1018.3 hPa | 0 mm | - | 6 W/m² | - |
| 1777600197 | 16.67° C | 10% | 1018.1 hPa | 0 mm | - | 43 W/m² | - |
| 1777585924 | 16.67° C | 10% | 1018.9 hPa | 0 mm | - | 607 W/m² | - |
| 1777585319 | 16.67° C | 10% | 1018.7 hPa | 0 mm | - | 635 W/m² | - |
| 1777581979 | 15.56° C | 10% | 1019.3 hPa | 0 mm | - | 212 W/m² | - |
| 1777581369 | 15° C | 10% | 1019.3 hPa | 0 mm | - | 269 W/m² | - |
| 1777581063 | 15.56° C | 10% | 1019.3 hPa | 0 mm | - | 389 W/m² | - |
| 1777580762 | 15° C | 10% | 1019.3 hPa | 0 mm | - | 395 W/m² | - |
| 1777580159 | 15° C | 10% | 1019.7 hPa | 0 mm | - | 217 W/m² | - |
| 1777579857 | 15.56° C | 10% | 1019.3 hPa | 0 mm | - | 222 W/m² | - |
| 1777579556 | 15.56° C | 10% | 1019.4 hPa | 0 mm | - | 395 W/m² | - |
| 1777579256 | 15° C | 10% | 1019.3 hPa | 0 mm | - | 699 W/m² | - |
| 1777578952 | 14.44° C | 10% | 1019.7 hPa | 0 mm | - | 264 W/m² | - |
| 1777577738 | 14.44° C | 10% | 1019.9 hPa | 0 mm | - | 153 W/m² | - |
| 1777577436 | 15° C | 10% | 1020.1 hPa | 0 mm | - | 162 W/m² | - |
| 1777577132 | 15° C | 10% | 1020.1 hPa | 0 mm | - | 159 W/m² | - |
| 1777576828 | 15.56° C | 10% | 1019.9 hPa | 0 mm | - | 174 W/m² | - |
* Rain latest hour (hover to see other rain measurements)
** Current wind speed in m/s (hover to see current wind gust speed)